When you browse on this site, cookies collect data to enhance your experience and personalize the content and advertising you see.
Visit our Privacy Policy to learn more. By continuing to use the site, you agree to this use of cookies and data.
  • In Spain
  • List of Countries
  • For 7 days
  • Water Temperature
  • Satellite Maps
  • Weather Map
  • Weather Widgets
  • user-avatar
    Login

    Hourly Weather Lowech

    Today, 18 January, Friday

    Time Temperature Precipitation Wind Pressure Humidity
    00:00 +3°C° 0 mm 2 mps 736 mmHg 61%
    01:00 +3°C° 0 mm 2 mps 736 mmHg 61%
    02:00 +3°C° 0 mm 2 mps 736 mmHg 61%
    03:00 +3°C° 0 mm 2 mps 736 mmHg 61%
    04:00 +2°C° 0 mm 2 mps 736 mmHg 61%
    05:00 +3°C° 0 mm 1 mps 736 mmHg 60%
    06:00 +3°C° 0 mm 1 mps 735 mmHg 60%
    07:00 +3°C° 0 mm 1 mps 735 mmHg 60%
    08:00 +3°C° 0 mm 1 mps 735 mmHg 59%
    09:00 +4°C° 0 mm 1 mps 736 mmHg 61%
    10:00 +6°C° 0 mm 1 mps 736 mmHg 62%
    11:00 +6°C° 0 mm 0 mps 736 mmHg 64%
    12:00 +7°C° 0 mm 0 mps 736 mmHg 65%
    13:00 +7°C° 0 mm 0 mps 735 mmHg 67%
    14:00 +8°C° 0 mm 0 mps 735 mmHg 68%
    15:00 +7°C° 0 mm 0 mps 735 mmHg 69%
    16:00 +7°C° 0 mm 1 mps 735 mmHg 69%
    17:00 +5°C° 0 mm 1 mps 735 mmHg 70%
    18:00 +5°C° 0 mm 1 mps 735 mmHg 68%
    19:00 +5°C° 0 mm 1 mps 735 mmHg 66%
    20:00 +4°C° 0 mm 1 mps 735 mmHg 65%
    21:00 +4°C° 0 mm 1 mps 736 mmHg 64%
    22:00 +4°C° 0 mm 1 mps 736 mmHg 64%
    23:00 +4°C° 0 mm 1 mps 736 mmHg 63%

    Tomorrow, 19 January, Saturday

    Time Temperature Precipitation Wind Pressure Humidity
    00:00 +4°C° 0 mm 1 mps 736 mmHg 65%
    01:00 +3°C° 0 mm 1 mps 736 mmHg 67%
    02:00 +3°C° 0 mm 1 mps 737 mmHg 69%
    03:00 +3°C° 0 mm 1 mps 737 mmHg 71%
    04:00 +3°C° 0 mm 1 mps 737 mmHg 72%
    05:00 +3°C° 0 mm 1 mps 737 mmHg 74%
    06:00 +3°C° 0.1 mm 1 mps 737 mmHg 76%
    07:00 +2°C° 0.1 mm 0 mps 738 mmHg 78%
    08:00 +2°C° 0.1 mm 0 mps 738 mmHg 80%
    09:00 +3°C° 0.3 mm 0 mps 738 mmHg 81%
    10:00 +4°C° 0.3 mm 1 mps 739 mmHg 82%
    11:00 +5°C° 0.3 mm 1 mps 739 mmHg 83%
    12:00 +5°C° 0.1 mm 1 mps 739 mmHg 83%
    13:00 +4°C° 0.1 mm 2 mps 739 mmHg 84%
    14:00 +4°C° 0.1 mm 2 mps 739 mmHg 85%
    15:00 +4°C° 0 mm 2 mps 739 mmHg 88%
    16:00 +3°C° 0 mm 2 mps 739 mmHg 91%
    17:00 +2°C° 0 mm 2 mps 739 mmHg 94%
    18:00 +1°C° 0 mm 2 mps 739 mmHg 94%
    19:00 +1°C° 0 mm 2 mps 739 mmHg 93%
    20:00 +1°C° 0 mm 2 mps 739 mmHg 93%
    21:00 +2°C° 0 mm 1 mps 739 mmHg 93%
    22:00 +2°C° 0 mm 1 mps 739 mmHg 92%
    23:00 +1°C° 0 mm 1 mps 740 mmHg 92%

    Day after tomorrow, 20 January, Sunday

    Time Temperature Precipitation Wind Pressure Humidity
    00:00 +1°C° 0 mm 1 mps 739 mmHg 93%
    01:00 +1°C° 0 mm 1 mps 739 mmHg 93%
    02:00 +1°C° 0 mm 1 mps 739 mmHg 93%
    03:00 +1°C° 0 mm 1 mps 738 mmHg 93%
    04:00 +1°C° 0 mm 1 mps 738 mmHg 94%
    05:00 +1°C° 0 mm 1 mps 738 mmHg 94%
    06:00 +1°C° 0 mm 1 mps 738 mmHg 94%
    07:00 +1°C° 0 mm 1 mps 737 mmHg 94%
    08:00 +1°C° 0 mm 1 mps 737 mmHg 94%
    09:00 +3°C° 0 mm 1 mps 737 mmHg 91%
    10:00 +4°C° 0 mm 1 mps 737 mmHg 88%
    11:00 +5°C° 0 mm 1 mps 737 mmHg 85%
    12:00 +5°C° 0 mm 1 mps 737 mmHg 85%
    13:00 +6°C° 0 mm 1 mps 736 mmHg 84%
    14:00 +6°C° 0 mm 1 mps 736 mmHg 83%
    15:00 +5°C° 0.1 mm 1 mps 735 mmHg 87%
    16:00 +5°C° 0.1 mm 1 mps 735 mmHg 90%
    17:00 +4°C° 0.1 mm 1 mps 735 mmHg 94%
    18:00 +4°C° 0.4 mm 1 mps 735 mmHg 94%
    19:00 +3°C° 0.4 mm 1 mps 735 mmHg 95%
    20:00 +3°C° 0.4 mm 1 mps 735 mmHg 95%
    21:00 +3°C° 0.3 mm 1 mps 735 mmHg 95%
    22:00 +3°C° 0.3 mm 1 mps 736 mmHg 96%
    23:00 +3°C° 0.3 mm 1 mps 736 mmHg 96%

    21 January, Monday

    Time Temperature Precipitation Wind Pressure Humidity
    00:00 +2°C° 0 mm 1 mps 736 mmHg 96%
    01:00 +2°C° 0 mm 1 mps 736 mmHg 95%
    02:00 +2°C° 0 mm 1 mps 736 mmHg 95%
    03:00 +2°C° 0 mm 1 mps 736 mmHg 94%
    04:00 +2°C° 0 mm 1 mps 736 mmHg 93%
    05:00 +2°C° 0 mm 1 mps 736 mmHg 93%
    06:00 +2°C° 0 mm 1 mps 736 mmHg 92%
    07:00 +2°C° 0 mm 1 mps 737 mmHg 91%
    08:00 +2°C° 0 mm 1 mps 737 mmHg 91%
    09:00 +2°C° 0 mm 2 mps 738 mmHg 86%
    10:00 +4°C° 0 mm 2 mps 738 mmHg 81%
    11:00 +5°C° 0 mm 2 mps 739 mmHg 76%
    12:00 +5°C° 0 mm 2 mps 739 mmHg 75%
    13:00 +6°C° 0 mm 2 mps 739 mmHg 73%
    14:00 +6°C° 0 mm 2 mps 739 mmHg 72%
    15:00 +5°C° 0 mm 2 mps 739 mmHg 76%
    16:00 +5°C° 0 mm 1 mps 739 mmHg 80%
    17:00 +4°C° 0 mm 1 mps 739 mmHg 83%
    18:00 +4°C° 0 mm 1 mps 740 mmHg 85%
    19:00 +3°C° 0 mm 1 mps 740 mmHg 86%
    20:00 +3°C° 0 mm 1 mps 741 mmHg 88%
    21:00 +3°C° 0 mm 1 mps 741 mmHg 89%
    22:00 +3°C° 0 mm 1 mps 741 mmHg 90%
    23:00 +2°C° 0 mm 2 mps 741 mmHg 92%

    22 January, Tuesday

    Time Temperature Precipitation Wind Pressure Humidity
    00:00 +1°C° 0 mm 2 mps 741 mmHg 91%
    01:00 +1°C° 0 mm 2 mps 741 mmHg 91%
    02:00 +1°C° 0 mm 2 mps 741 mmHg 91%
    03:00 +1°C° 0 mm 2 mps 741 mmHg 91%
    04:00 +1°C° 0 mm 2 mps 740 mmHg 90%
    05:00 -1°C° 0 mm 2 mps 740 mmHg 90%
    06:00 -1°C° 0 mm 2 mps 740 mmHg 90%
    07:00 +1°C° 0 mm 1 mps 740 mmHg 90%
    08:00 +1°C° 0 mm 1 mps 740 mmHg 90%
    09:00 +2°C° 0 mm 1 mps 739 mmHg 85%
    10:00 +4°C° 0 mm 1 mps 739 mmHg 81%
    11:00 +4°C° 0 mm 2 mps 739 mmHg 76%
    12:00 +5°C° 0 mm 2 mps 738 mmHg 73%
    13:00 +6°C° 0 mm 2 mps 737 mmHg 70%
    14:00 +7°C° 0 mm 2 mps 736 mmHg 67%
    15:00 +6°C° 0 mm 2 mps 736 mmHg 71%
    16:00 +5°C° 0 mm 2 mps 735 mmHg 75%
    17:00 +5°C° 0 mm 2 mps 735 mmHg 79%
    18:00 +4°C° 0 mm 2 mps 734 mmHg 81%
    19:00 +4°C° 0 mm 2 mps 734 mmHg 82%
    20:00 +3°C° 0 mm 2 mps 733 mmHg 83%
    21:00 +4°C° 0 mm 2 mps 732 mmHg 84%
    22:00 +4°C° 0 mm 2 mps 732 mmHg 85%
    23:00 +5°C° 0 mm 1 mps 731 mmHg 86%

    23 January, Wednesday

    Time Temperature Precipitation Wind Pressure Humidity
    00:00 +5°C° 0.1 mm 1 mps 730 mmHg 87%
    01:00 +5°C° 0.1 mm 1 mps 730 mmHg 88%
    02:00 +5°C° 0.1 mm 1 mps 729 mmHg 89%
    03:00 +5°C° 0.2 mm 1 mps 728 mmHg 89%
    04:00 +5°C° 0.2 mm 1 mps 727 mmHg 90%
    05:00 +5°C° 0.2 mm 1 mps 727 mmHg 90%
    06:00 +5°C° 0 mm 1 mps 727 mmHg 90%
    07:00 +4°C° 0 mm 1 mps 726 mmHg 90%
    08:00 +4°C° 0 mm 1 mps 726 mmHg 90%
    09:00 +5°C° 0 mm 1 mps 726 mmHg 86%
    10:00 +6°C° 0 mm 1 mps 726 mmHg 83%
    11:00 +8°C° 0 mm 1 mps 726 mmHg 79%
    12:00 +8°C° 0 mm 1 mps 726 mmHg 76%
    13:00 +9°C° 0 mm 1 mps 726 mmHg 74%
    14:00 +9°C° 0 mm 1 mps 725 mmHg 71%
    15:00 +9°C° 0 mm 1 mps 725 mmHg 76%
    16:00 +8°C° 0 mm 1 mps 725 mmHg 81%
    17:00 +7°C° 0 mm 1 mps 725 mmHg 86%
    18:00 +6°C° 0 mm 1 mps 725 mmHg 87%
    19:00 +6°C° 0 mm 1 mps 725 mmHg 87%
    20:00 +5°C° 0 mm 1 mps 725 mmHg 88%
    21:00 +5°C° 0 mm 1 mps 725 mmHg 87%
    22:00 +4°C° 0 mm 1 mps 725 mmHg 86%
    23:00 +4°C° 0 mm 1 mps 725 mmHg 86%
    Show more